Weather History for Twin Falls, ID

Change the Weather History Date:

Tuesday, March 18, 2014

  Actual Average Record
Temperature  
Mean Temperature 36 °F -  
Max Temperature 46 °F 54 °F 72 °F (2004)
Min Temperature 26 °F 31 °F 19 °F (2002)
Degree Days  
Heating Degree Days 29 22  
Month to date heating degree days 328 448  
Since 1 July heating degree days 4581 5015  
Cooling Degree Days 0 0  
Month to date cooling degree days 0 0  
Year to date cooling degree days 0 0  
Moisture  
Dew Point 16 °F    
Average Humidity 47    
Maximum Humidity 68    
Minimum Humidity 25    
Precipitation  
Precipitation 0.00 in 0.03 in 1.35 in (1993)
Month to date precipitation 1.01 0.48  
Year to date precipitation 3.25 2.27  
Sea Level Pressure  
Sea Level Pressure 30.12 in    
Wind  
Wind Speed 15 mph (WSW)    
Max Wind Speed 24 mph    
Max Gust Speed 30 mph    
Visibility 10 miles    
Events      
T = Trace of Precipitation, MM = Missing Value Source: NWS Daily Summary

Daily Weather History Graph

Daily Weather History Graph

Search for Another Location

Airport:

Trip Planner

Search our weather history database for the weather conditions in past years. The results will help you decide how hot, cold, wet, or windy it might be!

Date:

Astronomy

Mar. 18, 2014 Rise Set
Actual Time 7:44 AM MDT 7:48 PM MDT
Civil Twilight 7:16 AM MDT 8:16 PM MDT
Nautical Twilight 6:43 AM MDT 8:48 PM MDT
Astronomical Twilight 6:10 AM MDT 9:22 PM MDT
Moon 10:12 PM MDT (3/18) 8:33 AM MDT (3/18)
Length of Visible Light 12h 59m
Length of Day
12h 03m
Waning Gibbous, 96% of the Moon is Illuminated
Mar 18
Waning Gibbous
Mar 23
Last Quarter
Mar 30
New
Apr 7
First Quarter
Apr 15
Full

Hourly Weather History & Observations

Time (MDT) Temp. Windchill Dew Point Humidity Pressure Visibility Wind Dir Wind Speed Gust Speed Precip Events Conditions
12:53 AM 32.0 °F 19.8 °F 19.0 °F 59% 30.01 in 10.0 mi WSW 20.7 mph - N/A   Clear
1:53 AM 30.9 °F 18.4 °F 18.0 °F 59% 30.01 in 10.0 mi WSW 20.7 mph - N/A   Clear
2:53 AM 30.0 °F 16.9 °F 18.0 °F 61% 30.03 in 10.0 mi WSW 21.9 mph - N/A   Clear
3:53 AM 28.9 °F 16.9 °F 18.0 °F 64% 30.04 in 10.0 mi WSW 17.3 mph - N/A   Clear
4:53 AM 27.0 °F 15.2 °F 17.1 °F 66% 30.06 in 10.0 mi SW 15.0 mph - N/A   Clear
5:53 AM 27.0 °F 15.6 °F 17.1 °F 66% 30.07 in 10.0 mi SSW 13.8 mph - N/A   Clear
6:53 AM 26.1 °F 14.0 °F 16.0 °F 66% 30.09 in 10.0 mi SSW 15.0 mph - N/A   Clear
7:53 AM 27.0 °F 13.9 °F 16.0 °F 63% 30.12 in 10.0 mi SSW 18.4 mph - N/A   Clear
8:53 AM 30.0 °F 18.7 °F 17.1 °F 59% 30.14 in 10.0 mi SW 16.1 mph - N/A   Clear
9:53 AM 34.0 °F 22.7 °F 18.0 °F 52% 30.15 in 10.0 mi WSW 19.6 mph - N/A   Clear
10:53 AM 36.0 °F 25.0 °F 18.0 °F 48% 30.17 in 10.0 mi WSW 20.7 mph 25.3 mph N/A   Clear
11:53 AM 39.0 °F 29.0 °F 19.0 °F 45% 30.17 in 10.0 mi West 20.7 mph 28.8 mph N/A   Clear
12:53 PM 41.0 °F 32.5 °F 17.1 °F 38% 30.16 in 10.0 mi West 17.3 mph 24.2 mph N/A   Partly Cloudy
1:53 PM 42.1 °F 34.2 °F 15.1 °F 34% 30.14 in 10.0 mi West 16.1 mph 26.5 mph N/A   Partly Cloudy
2:53 PM 44.1 °F 36.8 °F 16.0 °F 32% 30.12 in 10.0 mi West 16.1 mph 24.2 mph N/A   Partly Cloudy
3:53 PM 45.0 °F 38.2 °F 15.1 °F 30% 30.11 in 10.0 mi West 15.0 mph 23.0 mph N/A   Clear
4:53 PM 46.0 °F 39.3 °F 12.9 °F 26% 30.11 in 10.0 mi West 16.1 mph 25.3 mph N/A   Clear
5:53 PM 45.0 °F 37.9 °F 12.0 °F 26% 30.11 in 10.0 mi West 16.1 mph - N/A   Clear
6:53 PM 44.1 °F 36.8 °F 12.0 °F 27% 30.13 in 10.0 mi West 16.1 mph - N/A   Clear
7:53 PM 36.0 °F 29.6 °F 10.9 °F 36% 30.15 in 10.0 mi WSW 8.1 mph - N/A   Clear
8:53 PM 32.0 °F 24.2 °F 12.0 °F 44% 30.17 in 10.0 mi SW 9.2 mph - N/A   Clear
9:53 PM 33.1 °F 25.5 °F 12.0 °F 42% 30.16 in 10.0 mi SSW 9.2 mph - N/A   Clear
10:53 PM 28.9 °F 19.2 °F 12.9 °F 51% 30.18 in 10.0 mi South 11.5 mph - N/A   Clear
11:53 PM 28.9 °F 20.4 °F 12.9 °F 51% 30.18 in 10.0 mi South 9.2 mph - N/A   Clear